Location: Acheville
(50.3840°N, 2.8827°E)
Time: 01:44:26
(UTC+00:00)

NOSS 2-3 (C) - Pass Details

Date: 24 October 2021
Orbit: 541 x 1670 km, 63.3° (Epoch: 04 December)

Event Time Altitude Azimuth Distance (km) Brightness Sun altitude
Rises 18:22:06 0° 219° (SW) 2,703 7.4 -17.1°
Reaches altitude 10° 18:24:09 10° 218° (SW) 1,849 6.5 -17.4°
Maximum altitude 18:28:11 82° 132° (SE) 630 3.4 -18.1°
Enters shadow 18:30:53 25° 46° (NE) 1,348 4.9 -18.5°
